Volver al catálogo

STARLINK-11495

ActivoComunicacionesVLEO
NORAD 62275·PAYLOAD·🇺🇸 United States

Lanzado Dec 8, 2024 desde Cape Canaveral Space Force Station

Loading…

Próximos Pases (próximas 24 horas)

TLE

ActualizadoSource: CelesTrak SupGP

Época: Sep 15, 2026, 03:33 UTC

1 62275C 24237J   26258.14840278 -.00039716  00000+0 -30860-3 0  2582
2 62275  43.0004 355.2481 0001711 252.2277  53.2909 15.70847825    16

Sigue STARLINK-11495 en tiempo real con AllMySat

Download on the App Store